SL-14 DEB, 45327

Orbit data source: Space-Track

SL-14 DEB, 45327 is space debris in LEO originally from a launch on Thu, 15 Aug 1991 UTC launched from the Plesetsk Missile And Space Complex (PKMTR). Debris objects in space refer to the collection of defunct objects orbiting the Earth. Examples of debris include non-operational satellites, rocket bodies, and fragments generated from explosions, collisions, or faulty payload assembly.

Loading next visibility...
Identifier
45327, 1991-056BR
Orbit
LEO
Country
Flag of CISCIS
Related business
Manufacturer
Unknown
Mission
Spacecraft
Bus & Motor
Unknown
Mass
Unknown
Launch date (UTC)
1991-08-15 (35 years ago)
Launch vehicle
Unknown
Launch site
Plesetsk Missile And Space Complex (PKMTR)
Object type
Payload
Rocket body
Debris
Shape & HBR
Unknown shape, 0.1 m
Radar Cross Section
Small (<0.1 m²)

Expand to show TLE details & history
Last TLE update: 1 week ago

TLE from 1 week ago
0 SL-14 DEB
1 45327U 91056BR  26150.80701339  .00001411  00000-0  25005-2 0  9998
2 45327  82.5624  95.3150 0073706 268.6766  90.5925 13.40797778307202
Epoch: 2026-05-30T19:22Z
TLE epoch observation values (Epoch: 2026-05-30T19:22:05.956Z)
Latitude
-0.00008°
Longitude
-83.52757°
Altitude
1,110.127 km
Speed
7.297 km/s
True Right ascension
06h 21m 15s
True Declination
0° 00' 00"
Sunlit
Object was in daylight at epoch
Visualization orbit readout
Latitude
Unknown
Longitude
Unknown
Altitude
Unknown
Speed
Unknown
Apparent Right ascension
Unknown
Apparent Declination
Unknown
Sunlit
N/A
Visualization observer readout
Local Sidereal Time
19:20:44
Azimuth
Unknown
Elevation
Unknown
Doppler factor
Unknown
Orbital elements
Apogee altitude
1,158.664 km
Perigee altitude
1,048.375 km
Semi-major axis
7,481.657 km
Eccentricity
0.00737
Inclination
82.5624°
RAAN
95.315°
Arg. of periapsis
268.6766°
True anomaly
91.43695°
Mean anomaly
90.5925°
Eccentric anomaly
91.01474°
Mean motion
3.35387 °/min
Orbital period
107.34 mins
BSTAR
0.0025005
Loading maneuver chart data...
Computing Atmospheric mass density...
Loading historical data...
Loading historical data...
Loading historical data...
Loading historical data...
Loading historical data...
Loading historical data...
Loading historical data...

Documentation

Showing up to 5 results
|